COSMOS 2242 (22626 NORAD) Tracking and Keplerian Element Data

This shows tracking and keplerian element data for the satellite.

Feedback or suggestion? Click here.




ElementValue
Catalog22626
NameCOSMOS 2242
Epoch Orbit66291
Epoch Day12.84381754
Epoch Year2024
RAAN296.0655
Inclination82.5223
Eccentricity0.001982
Argument of Perigee65.3624
Mean Anonmoly294.9657
Mean Motion14.90939583
Decay Rate3.343E-05
L11 22626U 93024A 24012.84381754 .00003343 00000+0 33506-3 0 9997
L22 22626 82.5223 296.0655 0019820 65.3624 294.9657 14.90939583662918



Live tracking and technical data element details for COSMOS 2242 (NORAD 22626). COSMOS 2242 can be tracked NOW for your location showing map with azimuth and elevation plus other details from your city location.







IsCatalogInMostPopularTable: catalog: 22626, numindb: 397
Update: records affected: 1



GetName: 22626 COSMOS 2242

Hit Count: updated at: Sun, 14 Apr 2024 23:10:30 GMT